Theta_e
349 355 360 357 357 358 357 357 357 356 356 355 356 356 356 355 354 353 353 353 352 351 351 351 350 350 350 350 349 349 348 348 349 350 352 354 346 345 348 350 349 350 358
350 356 360 359 358 358 357 357 357 356 355 355 354 354 354 354 354 354 354 354 354 354 354 353 353 353 353 353 352 351 350 349 350 350 350 352 356 348 352 352 354 354 353
349 355 355 360 360 358 357 356 355 354 354 354 354 353 353 351 350 350 350 350 351 352 351 351 352 352 352 352 353 353 353 352 351 350 351 345 349 353 351 351 353 354 348
348 355 356 358 358 357 356 354 355 355 354 352 350 350 349 350 351 352 353 353 353 353 353 353 354 354 354 353 353 353 353 353 353 352 344 341 340 359 355 354 352 353 352
349 353 359 358 356 354 356 355 354 352 352 352 353 353 353 354 355 355 355 355 355 354 353 352 351 351 351 351 351 352 353 355 354 352 345 344 344 350 350 350 352 357 357
347 352 356 356 356 356 354 353 355 355 355 355 356 355 354 353 353 354 354 352 352 352 352 354 351 349 351 352 352 352 352 352 353 349 348 350 348 353 351 349 351 354 356
346 349 350 357 355 354 354 354 353 352 351 350 350 349 348 349 348 347 346 346 346 346 346 346 346 344 343 346 348 347 348 352 352 347 346 349 348 353 351 349 353 356 358
344 349 352 354 355 355 353 351 349 346 345 344 343 343 343 344 342 342 342 342 340 340 341 341 341 341 340 340 341 342 342 343 343 345 346 345 353 353 351 352 358 359 361
344 345 346 351 354 353 350 348 345 341 339 337 336 337 338 339 339 338 338 337 338 337 337 337 337 337 337 338 337 338 340 342 341 342 341 348 354 352 352 351 354 357 360
342 343 345 347 349 348 349 342 340 337 335 333 332 329 329 336 337 336 336 332 332 333 333 333 334 334 335 336 338 337 337 340 341 341 340 352 354 352 352 348 350 352 356
340 344 347 348 351 348 348 343 339 337 336 336 335 330 336 330 330 330 328 327 328 329 331 330 330 332 333 337 341 340 339 337 339 339 339 353 351 349 349 347 346 347 350
340 344 346 351 351 348 346 348 345 342 339 336 333 333 331 332 331 328 332 326 330 327 334 330 332 336 336 328 327 338 333 332 334 337 337 349 348 347 348 350 347 346 348
342 344 348 354 357 349 346 348 345 342 339 334 332 332 333 330 330 328 327 327 328 333 327 329 328 327 328 327 327 327 326 325 326 329 336 340 338 337 342 350 350 346 349
344 346 352 352 353 352 347 345 344 339 337 332 331 332 330 328 328 328 327 327 328 327 328 327 326 329 327 327 325 325 325 325 325 326 333 338 334 332 336 343 349 348 348
344 347 351 353 353 350 346 342 341 339 334 331 330 330 329 327 328 328 328 327 327 327 326 326 326 325 325 327 327 328 327 326 326 326 327 337 335 333 334 340 347 347 347
346 348 350 350 352 348 344 342 338 336 333 330 330 330 329 328 329 327 326 325 325 325 325 325 324 324 325 326 326 327 329 330 331 333 333 333 339 339 338 337 343 344 344
348 349 350 348 345 344 343 339 337 332 330 329 328 330 328 329 330 329 325 324 324 325 326 326 325 326 324 325 326 327 328 329 330 333 334 334 339 337 337 338 337 338 338
347 344 342 342 341 341 339 337 333 331 329 328 328 326 327 328 328 327 324 323 324 323 323 323 324 322 322 323 323 325 325 327 330 332 333 336 338 338 336 336 337 337 338
342 342 337 337 335 338 338 335 333 333 330 329 326 325 327 327 327 326 323 322 323 321 323 322 322 323 322 321 319 321 325 326 327 328 330 330 330 332 329 330 329 330 331
342 338 336 336 337 337 335 333 329 328 328 327 324 325 326 326 325 325 322 321 320 320 320 322 322 322 322 321 320 318 321 323 325 325 326 327 326 325 327 325 324 323 325
338 336 335 334 336 334 330 326 325 325 326 324 325 325 325 324 324 324 319 319 320 318 320 321 321 320 318 321 318 320 322 320 323 323 324 325 324 324 323 321 322 322 321
338 335 334 335 334 332 329 330 329 327 324 323 324 325 324 322 323 321 321 319 321 317 319 318 319 316 316 318 314 314 311 314 316 319 321 322 321 320 319 320 320 321 322
333 333 334 334 333 332 333 328 327 325 323 322 322 321 321 320 321 321 320 320 319 320 315 317 318 317 312 314 317 311 308 306 309 316 318 319 321 318 319 318 318 319 320
334 334 335 334 332 331 332 328 328 322 320 321 321 321 320 320 319 319 320 320 320 317 318 316 316 317 315 309 311 311 313 311 304 305 312 314 317 315 317 315 315 317 317
333 332 333 331 331 331 329 329 325 324 322 321 321 322 321 320 318 317 319 320 319 317 318 318 317 316 313 310 306 306 309 306 308 304 302 304 308 312 310 312 312 311 313
333 330 328 328 329 329 328 327 327 325 323 320 320 318 317 317 318 319 318 320 319 320 317 317 318 316 314 311 309 309 306 304 304 304 302 304 303 306 308 309 309 309 311
Wind_Speed
19 16 12 11 9 9 9 8 8 8 8 8 8 9 9 9 9 9 8 8 8 8 8 7 7 7 6 6 6 5 6 6 6 6 7 6 3 2 1 4 8 2 8
20 17 12 12 10 9 9 8 8 8 8 8 8 8 8 8 8 7 7 7 7 7 6 6 6 6 6 6 6 6 6 6 7 7 9 11 10 8 5 2 6 9 6
17 16 14 10 11 10 10 9 9 8 8 8 7 7 7 7 7 6 6 7 7 6 6 6 7 7 7 7 7 8 7 8 8 10 12 12 13 14 9 5 4 3 2
14 14 14 10 11 12 11 10 8 8 7 7 6 7 7 7 7 6 6 7 7 7 7 7 6 6 7 7 7 7 9 8 10 11 12 13 5 17 13 8 5 4 4
15 14 14 14 13 12 11 11 9 8 8 8 7 7 7 7 7 6 6 7 7 8 8 7 8 8 8 7 8 9 9 10 11 13 14 13 8 12 8 7 8 9 8
13 18 14 14 12 13 12 11 10 10 11 12 13 13 12 11 12 12 13 13 12 12 11 11 10 10 10 8 7 8 8 9 12 14 14 6 6 13 8 3 4 7 6
18 15 15 13 14 13 13 13 14 14 14 13 13 12 12 12 13 13 13 12 12 12 12 12 11 11 11 10 9 9 9 10 12 13 13 7 3 12 7 2 6 9 10
16 18 15 14 14 14 14 13 14 13 13 12 11 11 11 11 11 11 11 12 11 11 10 10 11 11 11 10 10 9 10 11 13 15 15 8 13 11 7 3 8 11 12
15 16 15 15 15 16 14 14 14 13 13 12 11 8 7 8 8 10 12 12 12 12 11 10 10 10 11 11 10 9 11 14 14 13 13 9 15 10 7 4 8 7 11
14 16 17 14 14 12 12 13 13 12 12 10 10 5 1 5 7 11 10 12 10 11 9 9 10 12 13 14 13 12 11 15 16 15 9 6 11 9 8 2 5 4 7
12 13 16 16 14 10 14 11 13 12 10 9 6 2 1 7 9 8 6 4 6 8 9 8 9 12 15 19 19 15 13 9 14 8 7 10 8 4 3 2 1 2 4
12 11 13 16 12 9 9 8 6 6 8 8 8 6 8 6 7 7 2 4 6 4 13 9 9 15 14 10 9 13 9 12 10 10 8 9 7 3 3 9 5 4 5
13 9 15 12 3 7 8 2 3 4 4 5 8 8 7 6 7 7 6 7 7 7 8 9 9 8 11 9 9 9 11 11 9 9 6 9 8 5 6 11 10 6 7
12 8 16 8 7 7 2 4 3 4 4 4 7 10 7 5 7 7 6 7 7 7 9 9 7 8 10 10 10 11 11 10 8 8 9 7 5 3 7 12 12 10 10
12 11 13 9 8 7 6 3 3 3 5 5 6 8 7 7 7 6 6 6 6 7 8 8 9 8 9 9 9 10 9 10 9 7 7 4 5 4 7 11 12 12 11
14 13 12 10 8 8 7 5 3 3 4 4 5 7 8 7 6 6 6 7 7 7 8 7 8 7 9 8 11 12 14 13 14 13 10 7 13 13 13 9 10 10 9
12 12 11 11 10 8 9 6 3 3 3 4 4 6 6 6 6 8 6 7 7 6 7 7 8 8 7 8 11 10 10 8 11 12 10 11 7 14 16 7 1 2 4
9 9 8 7 9 8 6 7 5 4 3 3 3 5 6 6 6 5 7 7 8 7 6 7 7 6 7 9 8 8 7 8 11 12 11 10 9 11 15 20 23 19 25
11 11 10 9 9 8 7 9 6 4 2 2 3 5 5 6 6 5 7 7 8 6 7 7 7 7 5 5 5 6 6 7 11 10 13 13 15 12 7 20 21 20 20
12 10 10 6 9 8 7 7 5 4 3 2 4 5 5 5 6 7 7 6 8 8 8 8 6 7 5 7 11 5 7 8 7 7 10 9 10 11 8 10 9 10 18
13 12 12 12 11 8 7 7 5 4 3 4 5 4 5 6 6 7 6 7 5 8 8 9 9 5 6 7 5 4 2 5 7 6 7 7 7 9 10 8 7 4 9
14 13 13 12 11 7 5 3 2 2 3 4 6 5 5 5 6 7 7 6 8 6 9 9 9 9 4 6 8 9 3 4 4 6 7 7 7 8 10 10 9 9 8
15 15 14 12 13 8 8 6 4 4 5 6 7 6 5 5 6 5 6 6 5 7 7 8 9 9 9 5 6 8 8 7 9 3 6 6 5 6 4 5 6 7 7
16 14 14 12 12 10 9 8 7 4 4 6 3 7 5 5 5 6 5 5 6 7 8 8 8 8 9 7 7 6 5 4 8 5 3 5 5 4 3 4 5 4 5
15 11 14 13 11 11 9 7 7 5 6 5 6 6 6 4 4 5 5 4 4 6 6 7 8 9 7 8 6 6 5 5 5 5 8 8 5 4 6 6 6 6 7
15 14 13 14 12 12 10 8 7 7 6 6 6 6 6 7 6 2 3 4 4 3 5 6 6 8 8 7 7 7 7 7 7 7 8 4 6 5 5 4 5 5 5
Wind_Direction
100 110 122 119 121 116 110 104 95 89 86 85 84 83 78 72 66 63 59 54 49 47 43 39 38 37 30 24 23 16 4 353 345 336 327 310 269 203 293 315 310 312 65
101 113 125 130 131 121 112 108 102 94 91 88 84 79 76 70 61 55 50 44 39 33 28 20 9 5 2 356 349 347 342 336 326 316 302 276 232 201 181 255 321 15 32
107 119 132 134 127 118 111 97 93 96 94 91 86 83 72 66 61 52 42 36 31 18 8 359 351 347 343 339 333 330 326 322 316 309 296 271 226 189 174 204 264 320 352
125 132 121 119 120 112 105 109 110 101 93 87 80 74 72 63 53 51 46 36 26 18 7 352 350 341 334 326 320 318 313 308 305 301 279 250 272 167 165 184 229 243 215
120 110 108 115 109 116 123 104 102 99 93 81 72 69 67 62 52 46 42 30 22 18 5 5 0 351 343 335 327 318 310 303 296 285 271 273 356 114 143 166 210 220 219
143 107 113 114 128 113 105 104 91 95 84 71 67 65 59 53 48 44 43 36 31 26 22 23 18 9 357 330 320 319 311 298 294 274 260 219 224 119 133 158 270 280 251
112 120 125 125 110 110 106 94 85 77 72 68 68 66 62 59 54 50 45 39 33 27 19 15 11 5 359 359 352 338 325 306 283 289 289 265 119 124 116 59 292 273 262
132 120 132 115 115 109 100 95 90 83 79 73 68 67 65 61 56 52 44 34 27 21 17 11 4 357 351 345 341 334 323 310 296 280 264 261 107 104 82 17 294 271 244
121 125 136 133 121 105 102 98 93 87 78 72 65 61 70 79 69 54 51 30 17 8 4 360 352 342 331 319 310 307 307 302 292 286 292 19 106 96 83 11 312 286 228
140 142 144 130 148 135 127 107 102 95 90 83 70 31 259 170 146 100 11 29 5 358 348 345 336 325 308 292 275 266 276 284 267 267 290 81 99 115 110 41 355 356 194
147 147 142 130 129 136 130 132 133 130 140 145 121 328 298 30 15 344 80 20 346 336 312 309 312 299 294 280 253 247 252 267 266 296 300 108 98 100 152 196 242 90 152
136 157 119 106 120 181 120 142 110 89 62 42 32 33 12 20 6 315 317 209 269 269 279 253 265 266 272 327 324 228 266 311 309 299 288 100 85 51 279 242 243 207 181
157 118 111 109 160 36 82 144 82 58 36 81 38 18 35 359 4 360 355 346 352 356 358 341 331 356 339 333 322 307 303 303 293 287 296 95 72 36 325 273 241 211 184
139 147 110 131 147 121 130 29 92 73 54 32 63 10 18 3 359 359 7 347 356 355 356 348 349 342 330 318 319 317 320 313 306 313 314 92 74 10 302 288 247 212 184
146 148 127 157 133 122 100 101 41 53 48 35 35 37 14 357 357 7 8 358 3 1 353 344 358 342 326 337 347 342 337 317 308 296 300 270 203 222 258 278 253 212 183
153 161 152 154 139 127 117 113 116 61 128 62 55 28 16 352 360 343 14 4 8 10 349 348 347 334 6 352 13 3 6 12 354 353 333 342 24 2 311 272 240 217 192
162 155 151 142 136 152 133 126 101 113 98 64 59 69 26 10 352 329 25 11 7 359 348 358 350 19 358 19 28 14 18 12 22 8 1 347 14 32 16 344 351 201 207
135 129 132 143 138 145 147 130 102 87 71 64 38 58 21 19 7 25 20 21 347 358 4 10 1 16 15 40 22 12 33 34 29 30 30 31 36 43 40 55 60 65 74
133 153 152 142 156 151 157 101 92 129 89 63 47 55 40 36 20 4 30 23 345 6 21 17 8 358 20 3 91 35 34 47 30 48 41 42 46 62 76 66 58 62 67
156 143 150 170 145 152 125 125 128 132 136 78 53 62 20 51 36 346 63 21 23 25 34 0 20 359 335 353 344 43 30 26 26 47 57 38 68 50 39 106 112 99 80
160 162 158 157 167 160 144 159 156 160 129 112 92 70 62 34 42 16 39 26 31 38 22 11 344 64 19 358 324 273 156 96 88 65 32 55 43 54 51 32 33 79 91
165 162 169 162 165 163 153 118 83 145 81 91 88 79 62 57 34 70 20 54 359 74 33 19 6 343 48 32 351 302 268 181 77 58 45 51 46 44 38 39 38 29 22
175 173 172 170 156 173 129 130 142 111 162 159 158 121 68 64 72 67 70 33 52 26 46 25 2 25 340 29 35 355 334 11 330 149 104 85 47 39 49 84 45 26 18
181 172 165 167 164 156 173 166 183 216 176 82 113 77 98 74 85 90 75 65 37 57 26 36 28 358 352 19 6 11 348 19 345 327 161 108 169 139 96 342 9 13 18
174 175 158 157 166 155 179 177 184 207 127 159 112 140 69 103 106 100 88 71 46 38 56 36 36 14 29 356 18 9 12 34 7 348 320 2 328 68 5 7 19 334 4
172 171 160 156 169 167 170 177 209 146 160 143 155 174 170 149 150 66 92 79 36 2 45 59 8 47 19 13 5 14 21 13 9 359 341 359 321 32 24 9 358 357 352